| time (UTC) | temp F | wind direction | speed knots | gust knots | rain 1hr in | rain 24hr in | rain mn in | humidity % | barometer mb |
| 20260903043608 | 77 | 300 | 0.0 | 0.0 | 0.00 | 0.00 | 0.00 | 60 | 1018.7 |
| 20260903043108 | 77 | 300 | 0.0 | 0.0 | 0.00 | 0.00 | 0.00 | 60 | 1018.7 |
| 20260903042605 | 77 | 300 | 0.0 | 0.0 | 0.00 | 0.00 | 0.00 | 60 | 1018.7 |
| 20260903042105 | 77 | 300 | 0.0 | 0.0 | 0.00 | 0.00 | 0.00 | 60 | 1018.8 |
| 20260903041603 | 77 | 300 | 0.0 | 0.0 | 0.00 | 0.00 | 0.00 | 60 | 1018.8 |
| 20260903041104 | 77 | 300 | 0.0 | 0.0 | 0.00 | 0.00 | 0.00 | 59 | 1018.8 |
| 20260903040603 | 78 | 300 | 0.0 | 0.0 | 0.00 | 0.00 | 0.00 | 59 | 1018.7 |
| 20260903040103 | 78 | 300 | 0.0 | 0.0 | 0.00 | 0.00 | 0.00 | 59 | 1018.7 |
| 20260903035100 | 78 | 300 | 0.0 | 0.0 | 0.00 | 0.00 | 0.00 | 59 | 1018.8 |
| 20260903034554 | 78 | 300 | 0.0 | 0.0 | 0.00 | 0.00 | 0.00 | 59 | 1018.9 |
| 20260903034054 | 78 | 300 | 0.0 | 0.0 | 0.00 | 0.00 | 0.00 | 59 | 1018.8 |
| 20260903033552 | 78 | 300 | 0.0 | 0.0 | 0.00 | 0.00 | 0.00 | 59 | 1018.7 |
| 20260903032548 | 79 | 300 | 0.0 | 0.0 | 0.00 | 0.00 | 0.00 | 58 | 1018.8 |
| 20260903032048 | 79 | 300 | 0.0 | 0.0 | 0.00 | 0.00 | 0.00 | 58 | 1018.9 |
| 20260903031546 | 79 | 300 | 0.0 | 0.0 | 0.00 | 0.00 | 0.00 | 58 | 1018.9 |
| 20260903031044 | 79 | 300 | 0.0 | 0.0 | 0.00 | 0.00 | 0.00 | 58 | 1019.0 |
| 20260903030542 | 79 | 300 | 0.0 | 0.0 | 0.00 | 0.00 | 0.00 | 58 | 1019.0 |
| 20260903030040 | 79 | 300 | 0.0 | 0.0 | 0.00 | 0.00 | 0.00 | 58 | 1019.1 |
| 20260903025538 | 79 | 300 | 0.0 | 0.0 | 0.00 | 0.00 | 0.00 | 58 | 1019.1 |
| 20260903025038 | 80 | 300 | 0.0 | 0.0 | 0.00 | 0.00 | 0.00 | 58 | 1019.1 |
| 20260903024536 | 80 | 300 | 0.0 | 0.0 | 0.00 | 0.00 | 0.00 | 57 | 1019.2 |
| 20260903024037 | 80 | 300 | 0.0 | 0.0 | 0.00 | 0.00 | 0.00 | 57 | 1019.1 |
| 20260903023536 | 80 | 300 | 0.0 | 0.0 | 0.00 | 0.00 | 0.00 | 57 | 1019.1 |
| 20260903022035 | 80 | 300 | 0.0 | 0.0 | 0.00 | 0.00 | 0.00 | 56 | 1019.1 |
| 20260903021534 | 81 | 300 | 0.0 | 0.0 | 0.00 | 0.00 | 0.00 | 56 | 1019.1 |
| 20260903021034 | 81 | 300 | 0.0 | 0.0 | 0.00 | 0.00 | 0.00 | 56 | 1019.2 |
| 20260903020031 | 81 | 300 | 0.0 | 0.0 | 0.00 | 0.00 | 0.00 | 55 | 1019.2 |
| 20260903015532 | 81 | 300 | 0.0 | 0.0 | 0.00 | 0.00 | 0.00 | 54 | 1019.2 |
| 20260903015029 | 82 | 300 | 0.0 | 0.0 | 0.00 | 0.00 | 0.00 | 54 | 1019.2 |
| 20260903014530 | 82 | 300 | 0.0 | 0.0 | 0.00 | 0.00 | 0.00 | 54 | 1019.2 |
| 20260903014033 | 82 | 300 | 0.0 | 0.0 | 0.00 | 0.00 | 0.00 | 54 | 1019.1 |
| 20260903013532 | 82 | 300 | 0.0 | 0.0 | 0.00 | 0.00 | 0.00 | 53 | 1019.0 |
| 20260903013031 | 83 | 300 | 0.0 | 0.0 | 0.00 | 0.00 | 0.00 | 53 | 1018.9 |
| 20260903012530 | 83 | 300 | 0.0 | 0.0 | 0.00 | 0.00 | 0.00 | 52 | 1018.9 |
| 20260903012028 | 83 | 300 | 0.0 | 0.0 | 0.00 | 0.00 | 0.00 | 52 | 1018.9 |
| 20260903011530 | 83 | 300 | 0.0 | 0.0 | 0.00 | 0.00 | 0.00 | 51 | 1018.8 |
| 20260903011029 | 84 | 300 | 0.0 | 0.0 | 0.00 | 0.00 | 0.00 | 51 | 1018.8 |
| 20260903010529 | 84 | 300 | 0.0 | 0.0 | 0.00 | 0.00 | 0.00 | 51 | 1019.0 |
| 20260903005527 | 85 | 300 | 0.0 | 0.0 | 0.00 | 0.00 | 0.00 | 50 | 1018.5 |
| 20260903005028 | 85 | 300 | 0.0 | 0.0 | 0.00 | 0.00 | 0.00 | 50 | 1018.5 |
| 20260903004528 | 86 | 300 | 0.0 | 0.0 | 0.00 | 0.00 | 0.00 | 49 | 1018.5 |
| 20260903002523 | 87 | 300 | 0.0 | 0.0 | 0.00 | 0.00 | 0.00 | 46 | 1018.5 |
| 20260903002023 | 88 | 300 | 0.0 | 0.0 | 0.00 | 0.00 | 0.00 | 46 | 1018.5 |
| 20260903001523 | 88 | 300 | 0.0 | 0.0 | 0.00 | 0.00 | 0.00 | 45 | 1018.5 |
| 20260903001023 | 89 | 300 | 0.0 | 0.0 | 0.00 | 0.00 | 0.00 | 44 | 1018.5 |
| 20260903000524 | 89 | 300 | 0.0 | 0.0 | 0.00 | 0.00 | 0.00 | 43 | 1018.5 |
| 20260902234523 | 90 | 300 | 0.0 | 0.9 | 0.00 | 0.00 | 0.00 | 40 | 1018.6 |
| 20260902233519 | 91 | 300 | 0.0 | 0.9 | 0.00 | 0.00 | 0.00 | 40 | 1018.5 |
| 20260902232520 | 91 | 300 | 0.0 | 0.0 | 0.00 | 0.00 | 0.00 | 38 | 1018.6 |
| 20260902232019 | 91 | 300 | 0.0 | 0.9 | 0.00 | 0.00 | 0.00 | 38 | 1018.6 |
| 20260902231527 | 91 | 300 | 0.0 | 0.9 | 0.00 | 0.00 | 0.00 | 38 | 1018.6 |
| 20260902231026 | 91 | 300 | 0.0 | 1.7 | 0.00 | 0.00 | 0.00 | 37 | 1018.5 |
| 20260902230526 | 92 | 300 | 0.0 | 1.7 | 0.00 | 0.00 | 0.00 | 37 | 1018.5 |
| 20260902230027 | 92 | 297 | 0.0 | 0.9 | 0.00 | 0.00 | 0.00 | 37 | 1018.7 |
| 20260902225522 | 92 | 297 | 0.0 | 1.7 | 0.00 | 0.00 | 0.00 | 37 | 1018.6 |
| 20260902224522 | 92 | 293 | 0.0 | 0.9 | 0.00 | 0.00 | 0.00 | 37 | 1018.7 |
| 20260902224019 | 92 | 293 | 0.0 | 0.9 | 0.00 | 0.00 | 0.00 | 36 | 1018.6 |
| 20260902223518 | 92 | 293 | 0.0 | 2.6 | 0.00 | 0.00 | 0.00 | 36 | 1018.6 |
| 20260902223018 | 92 | 293 | 0.0 | 2.6 | 0.00 | 0.00 | 0.00 | 36 | 1018.6 |
| 20260902222518 | 93 | 284 | 0.0 | 1.7 | 0.00 | 0.00 | 0.00 | 37 | 1018.8 |
| 20260902222016 | 93 | 284 | 0.0 | 0.9 | 0.00 | 0.00 | 0.00 | 37 | 1018.7 |
| 20260902221516 | 93 | 284 | 0.0 | 1.7 | 0.00 | 0.00 | 0.00 | 37 | 1018.8 |
| 20260902221015 | 93 | 284 | 0.0 | 1.7 | 0.00 | 0.00 | 0.00 | 37 | 1018.8 |
| 20260902220515 | 93 | 284 | 0.0 | 1.7 | 0.00 | 0.00 | 0.00 | 36 | 1018.9 |
| 20260902220015 | 93 | 325 | 0.0 | 0.0 | 0.00 | 0.00 | 0.00 | 36 | 1018.9 |
| 20260902215515 | 93 | 325 | 0.0 | 0.0 | 0.00 | 0.00 | 0.00 | 36 | 1018.8 |
| 20260902215016 | 93 | 325 | 0.0 | 0.0 | 0.00 | 0.00 | 0.00 | 35 | 1018.9 |
| 20260902214012 | 94 | 325 | 0.9 | 2.6 | 0.00 | 0.00 | 0.00 | 37 | 1018.9 |
| 20260902213510 | 94 | 269 | 0.9 | 1.7 | 0.00 | 0.00 | 0.00 | 37 | 1018.9 |
| 20260902213008 | 94 | 268 | 0.0 | 2.6 | 0.00 | 0.00 | 0.00 | 36 | 1019.0 |
| 20260902212506 | 94 | 252 | 0.9 | 3.5 | 0.00 | 0.00 | 0.00 | 36 | 1019.1 |
| 20260902212002 | 94 | 273 | 0.9 | 4.3 | 0.00 | 0.00 | 0.00 | 35 | 1019.1 |
| 20260902211501 | 94 | 304 | 0.9 | 4.3 | 0.00 | 0.00 | 0.00 | 35 | 1019.1 |
| 20260902211001 | 94 | 344 | 0.0 | 0.9 | 0.00 | 0.00 | 0.00 | 36 | 1019.1 |
| 20260902210501 | 94 | 315 | 0.0 | 0.0 | 0.00 | 0.00 | 0.00 | 36 | 1019.1 |
| 20260902210003 | 94 | 315 | 0.0 | 1.7 | 0.00 | 0.00 | 0.00 | 35 | 1019.1 |
| 20260902205501 | 95 | 321 | 0.9 | 1.7 | 0.00 | 0.00 | 0.00 | 35 | 1019.1 |
| 20260902205000 | 95 | 277 | 0.9 | 2.6 | 0.00 | 0.00 | 0.00 | 35 | 1019.2 |
| 20260902204452 | 95 | 293 | 1.7 | 6.1 | 0.00 | 0.00 | 0.00 | 36 | 1019.1 |
| 20260902203450 | 95 | 306 | 0.0 | 5.2 | 0.00 | 0.00 | 0.00 | 35 | 1019.0 |
| 20260902202947 | 96 | 26 | 0.0 | 0.9 | 0.00 | 0.00 | 0.00 | 35 | 1019.1 |
| 20260902201942 | 96 | 26 | 0.9 | 2.6 | 0.00 | 0.00 | 0.00 | 32 | 1019.2 |
| 20260902200942 | 96 | 274 | 0.0 | 2.6 | 0.00 | 0.00 | 0.00 | 31 | 1019.2 |
| 20260902200440 | 95 | 236 | 0.9 | 3.5 | 0.00 | 0.00 | 0.00 | 33 | 1019.3 |
| 20260902195437 | 95 | 262 | 0.9 | 4.3 | 0.00 | 0.00 | 0.00 | 35 | 1019.3 |
| 20260902194942 | 95 | 321 | 0.9 | 4.3 | 0.00 | 0.00 | 0.00 | 34 | 1019.4 |
| 20260902194436 | 95 | 280 | 0.0 | 1.7 | 0.00 | 0.00 | 0.00 | 36 | 1019.6 |
| 20260902193931 | 95 | 280 | 0.9 | 2.6 | 0.00 | 0.00 | 0.00 | 37 | 1019.6 |
| 20260902192930 | 95 | 300 | 0.9 | 2.6 | 0.00 | 0.00 | 0.00 | 35 | 1019.7 |
| 20260902192429 | 95 | 304 | 0.9 | 2.6 | 0.00 | 0.00 | 0.00 | 36 | 1019.9 |
| 20260902190927 | 95 | 309 | 0.9 | 5.2 | 0.00 | 0.00 | 0.00 | 36 | 1019.9 |
| 20260902190421 | 95 | 261 | 0.9 | 3.5 | 0.00 | 0.00 | 0.00 | 36 | 1019.9 |
| 20260902185917 | 95 | 87 | 0.9 | 3.5 | 0.00 | 0.00 | 0.00 | 36 | 1019.9 |
| 20260902185415 | 96 | 283 | 0.9 | 3.5 | 0.00 | 0.00 | 0.00 | 36 | 1020.1 |
| 20260902184911 | 96 | 286 | 0.9 | 3.5 | 0.00 | 0.00 | 0.00 | 35 | 1020.1 |
| 20260902184407 | 96 | 303 | 0.0 | 1.7 | 0.00 | 0.00 | 0.00 | 35 | 1020.0 |
| 20260902183407 | 97 | 316 | 0.9 | 5.2 | 0.00 | 0.00 | 0.00 | 34 | 1020.1 |
| 20260902182909 | 97 | 322 | 0.9 | 5.2 | 0.00 | 0.00 | 0.00 | 33 | 1020.0 |
| 20260902182407 | 97 | 62 | 0.9 | 2.6 | 0.00 | 0.00 | 0.00 | 34 | 1020.1 |
| 20260902181405 | 98 | 5 | 0.9 | 3.5 | 0.00 | 0.00 | 0.00 | 34 | 1020.2 |
| 20260902175905 | 98 | 292 | 0.9 | 2.6 | 0.00 | 0.00 | 0.00 | 34 | 1020.3 |
| 20260902175403 | 98 | 90 | 0.9 | 3.5 | 0.00 | 0.00 | 0.00 | 34 | 1020.4 |
| 20260902174408 | 99 | 14 | 0.9 | 1.7 | 0.00 | 0.00 | 0.00 | 32 | 1020.7 |
| 20260902173908 | 99 | 24 | 0.9 | 3.5 | 0.00 | 0.00 | 0.00 | 34 | 1020.9 |
| 20260902172908 | 99 | 154 | 0.9 | 2.6 | 0.00 | 0.00 | 0.00 | 34 | 1021.0 |
| 20260902172400 | 99 | 293 | 0.9 | 2.6 | 0.00 | 0.00 | 0.00 | 33 | 1020.9 |
| 20260902171853 | 99 | 263 | 0.9 | 2.6 | 0.00 | 0.00 | 0.00 | 34 | 1021.0 |
| 20260902165838 | 98 | 342 | 0.0 | 3.5 | 0.00 | 0.00 | 0.00 | 34 | 1021.3 |
| 20260902165337 | 98 | 62 | 0.0 | 2.6 | 0.00 | 0.00 | 0.00 | 36 | 1021.3 |
| 20260902164835 | 98 | 338 | 0.0 | 2.6 | 0.00 | 0.00 | 0.00 | 36 | 1021.4 |
| 20260902164333 | 98 | 301 | 0.9 | 2.6 | 0.00 | 0.00 | 0.00 | 36 | 1021.4 |
| 20260902163339 | 97 | 262 | 0.9 | 2.6 | 0.00 | 0.00 | 0.00 | 37 | 1021.6 |
| 20260902162836 | 97 | 242 | 0.9 | 2.6 | 0.00 | 0.00 | 0.00 | 36 | 1021.6 |
| 20260902162331 | 97 | 294 | 0.9 | 2.6 | 0.00 | 0.00 | 0.00 | 36 | 1021.6 |
| 20260902161831 | 97 | 294 | 0.9 | 2.6 | 0.00 | 0.00 | 0.00 | 36 | 1021.6 |
| 20260902161331 | 97 | 304 | 0.0 | 1.7 | 0.00 | 0.00 | 0.00 | 38 | 1021.6 |
| 20260902160830 | 96 | 302 | 0.0 | 1.7 | 0.00 | 0.00 | 0.00 | 38 | 1021.6 |
| 20260902160329 | 96 | 302 | 0.9 | 1.7 | 0.00 | 0.00 | 0.00 | 38 | 1021.7 |
| 20260902155328 | 96 | 355 | 0.9 | 2.6 | 0.00 | 0.00 | 0.00 | 39 | 1021.8 |
| 20260902154830 | 96 | 355 | 0.9 | 2.6 | 0.00 | 0.00 | 0.00 | 39 | 1021.6 |
| 20260902154329 | 96 | 296 | 0.9 | 1.7 | 0.00 | 0.00 | 0.00 | 40 | 1021.7 |
| 20260902153829 | 95 | 298 | 0.9 | 1.7 | 0.00 | 0.00 | 0.00 | 40 | 1021.7 |
| 20260902153329 | 95 | 294 | 0.0 | 2.6 | 0.00 | 0.00 | 0.00 | 41 | 1021.7 |
| 20260902152823 | 94 | 290 | 0.0 | 2.6 | 0.00 | 0.00 | 0.00 | 41 | 1021.7 |
| 20260902152316 | 94 | 288 | 0.0 | 0.9 | 0.00 | 0.00 | 0.00 | 43 | 1021.6 |
| 20260902151306 | 92 | 289 | 0.9 | 2.6 | 0.00 | 0.00 | 0.00 | 42 | 1021.7 |
| 20260902150803 | 92 | 284 | 0.9 | 3.5 | 0.00 | 0.00 | 0.00 | 43 | 1021.5 |
| 20260902150303 | 92 | 330 | 0.9 | 3.5 | 0.00 | 0.00 | 0.00 | 43 | 1021.5 |
| 20260902145803 | 91 | 26 | 0.9 | 2.6 | 0.00 | 0.00 | 0.00 | 45 | 1021.5 |
| 20260902145306 | 91 | 309 | 0.9 | 2.6 | 0.00 | 0.00 | 0.00 | 47 | 1021.6 |
| 20260902144803 | 90 | 322 | 0.0 | 2.6 | 0.00 | 0.00 | 0.00 | 46 | 1021.6 |
| 20260902144303 | 89 | 315 | 0.0 | 0.9 | 0.00 | 0.00 | 0.00 | 49 | 1021.5 |
| 20260902143808 | 88 | 315 | 0.0 | 0.9 | 0.00 | 0.00 | 0.00 | 51 | 1021.5 |
| 20260902143302 | 87 | 315 | 0.0 | 0.9 | 0.00 | 0.00 | 0.00 | 53 | 1021.5 |
| 20260902142801 | 86 | 315 | 0.0 | 0.9 | 0.00 | 0.00 | 0.00 | 52 | 1021.5 |
| 20260902142301 | 85 | 315 | 0.0 | 1.7 | 0.00 | 0.00 | 0.00 | 54 | 1021.6 |
| 20260902141801 | 84 | 315 | 0.0 | 1.7 | 0.00 | 0.00 | 0.00 | 54 | 1021.6 |
| 20260902141301 | 83 | 314 | 0.0 | 0.9 | 0.00 | 0.00 | 0.00 | 55 | 1021.6 |
| 20260902140801 | 82 | 314 | 0.0 | 0.9 | 0.00 | 0.00 | 0.00 | 55 | 1021.6 |
| 20260902140301 | 81 | 314 | 0.0 | 1.7 | 0.00 | 0.00 | 0.00 | 54 | 1021.5 |
| 20260902135801 | 80 | 315 | 0.0 | 1.7 | 0.00 | 0.00 | 0.00 | 54 | 1021.6 |
| 20260902135301 | 79 | 314 | 0.0 | 1.7 | 0.00 | 0.00 | 0.00 | 52 | 1021.6 |
| 20260902134802 | 78 | 288 | 0.0 | 0.0 | 0.00 | 0.00 | 0.00 | 51 | 1021.6 |
| 20260902134258 | 77 | 288 | 0.0 | 0.0 | 0.00 | 0.00 | 0.00 | 50 | 1021.5 |
| 20260902133752 | 77 | 288 | 0.0 | 0.0 | 0.00 | 0.00 | 0.00 | 49 | 1021.5 |
| 20260902133247 | 76 | 288 | 0.0 | 0.0 | 0.00 | 0.00 | 0.00 | 48 | 1021.5 |
| 20260902132245 | 76 | 288 | 0.0 | 0.0 | 0.00 | 0.00 | 0.00 | 47 | 1021.4 |
| 20260902131745 | 75 | 288 | 0.0 | 0.0 | 0.00 | 0.00 | 0.00 | 48 | 1021.5 |
| 20260902131245 | 75 | 288 | 0.0 | 0.0 | 0.00 | 0.00 | 0.00 | 49 | 1021.5 |
| 20260902130240 | 74 | 288 | 0.0 | 0.0 | 0.00 | 0.00 | 0.00 | 50 | 1021.5 |
| 20260902125739 | 74 | 288 | 0.0 | 0.0 | 0.00 | 0.00 | 0.00 | 50 | 1021.4 |
| 20260902124736 | 73 | 288 | 0.0 | 0.0 | 0.00 | 0.00 | 0.00 | 50 | 1021.4 |
| 20260902124237 | 73 | 288 | 0.0 | 0.0 | 0.00 | 0.00 | 0.00 | 50 | 1021.4 |
| 20260902123237 | 73 | 288 | 0.0 | 0.0 | 0.00 | 0.00 | 0.00 | 50 | 1021.3 |
| 20260902122735 | 73 | 288 | 0.0 | 0.0 | 0.00 | 0.00 | 0.00 | 50 | 1021.4 |
| 20260902122233 | 72 | 288 | 0.0 | 0.0 | 0.00 | 0.00 | 0.00 | 50 | 1021.4 |
| 20260902121733 | 72 | 288 | 0.0 | 0.0 | 0.00 | 0.00 | 0.00 | 50 | 1021.2 |
| 20260902121239 | 72 | 288 | 0.0 | 0.0 | 0.00 | 0.00 | 0.00 | 50 | 1021.3 |
| 20260902120229 | 72 | 288 | 0.0 | 0.0 | 0.00 | 0.00 | 0.00 | 51 | 1021.1 |
| 20260902115729 | 72 | 288 | 0.0 | 0.0 | 0.00 | 0.00 | 0.00 | 52 | 1021.1 |
| 20260902115227 | 72 | 288 | 0.0 | 0.0 | 0.00 | 0.00 | 0.00 | 52 | 1021.0 |
| 20260902114724 | 71 | 288 | 0.0 | 0.0 | 0.00 | 0.00 | 0.00 | 52 | 1021.0 |
| 20260902114223 | 71 | 288 | 0.0 | 0.0 | 0.00 | 0.00 | 0.00 | 52 | 1021.0 |
| 20260902113722 | 71 | 288 | 0.0 | 0.0 | 0.00 | 0.00 | 0.00 | 53 | 1021.0 |
| 20260902112723 | 71 | 288 | 0.0 | 0.0 | 0.00 | 0.00 | 0.00 | 53 | 1020.7 |
| 20260902112223 | 71 | 288 | 0.0 | 0.0 | 0.00 | 0.00 | 0.00 | 53 | 1020.6 |
| 20260902111723 | 72 | 288 | 0.0 | 0.0 | 0.00 | 0.00 | 0.00 | 53 | 1020.6 |
| 20260902111223 | 72 | 288 | 0.0 | 0.0 | 0.00 | 0.00 | 0.00 | 53 | 1020.6 |
| 20260902110721 | 72 | 288 | 0.0 | 0.0 | 0.00 | 0.00 | 0.00 | 53 | 1020.4 |
| 20260902110222 | 72 | 288 | 0.0 | 0.0 | 0.00 | 0.00 | 0.00 | 53 | 1020.5 |
| 20260902105719 | 72 | 288 | 0.0 | 0.0 | 0.00 | 0.00 | 0.00 | 53 | 1020.5 |
| 20260902105217 | 72 | 288 | 0.0 | 0.0 | 0.00 | 0.00 | 0.00 | 53 | 1020.5 |
| 20260902104717 | 72 | 288 | 0.0 | 0.0 | 0.00 | 0.00 | 0.00 | 54 | 1020.4 |
| 20260902104219 | 72 | 288 | 0.0 | 0.0 | 0.00 | 0.00 | 0.00 | 54 | 1020.5 |
| 20260902103715 | 72 | 288 | 0.0 | 0.0 | 0.00 | 0.00 | 0.00 | 54 | 1020.4 |
| 20260902102713 | 72 | 288 | 0.0 | 0.0 | 0.00 | 0.00 | 0.00 | 54 | 1020.4 |
| 20260902102211 | 72 | 288 | 0.0 | 0.0 | 0.00 | 0.00 | 0.00 | 54 | 1020.4 |
| 20260902101709 | 72 | 288 | 0.0 | 0.0 | 0.00 | 0.00 | 0.00 | 54 | 1020.4 |
| 20260902101208 | 72 | 288 | 0.0 | 0.0 | 0.00 | 0.00 | 0.00 | 54 | 1020.4 |
| 20260902100704 | 72 | 288 | 0.0 | 0.0 | 0.00 | 0.00 | 0.00 | 54 | 1020.4 |
| 20260902100200 | 72 | 288 | 0.0 | 0.0 | 0.00 | 0.00 | 0.00 | 54 | 1020.3 |
| 20260902095659 | 72 | 288 | 0.0 | 0.0 | 0.00 | 0.00 | 0.00 | 54 | 1020.2 |
| 20260902095158 | 72 | 288 | 0.0 | 0.0 | 0.00 | 0.00 | 0.00 | 54 | 1020.1 |
| 20260902094655 | 72 | 288 | 0.0 | 0.0 | 0.00 | 0.00 | 0.00 | 54 | 1020.1 |
| 20260902093655 | 72 | 288 | 0.0 | 0.0 | 0.00 | 0.00 | 0.00 | 54 | 1020.1 |
| 20260902093153 | 73 | 288 | 0.0 | 0.0 | 0.00 | 0.00 | 0.00 | 54 | 1020.0 |
| 20260902092651 | 73 | 288 | 0.0 | 0.0 | 0.00 | 0.00 | 0.00 | 54 | 1020.1 |
| 20260902092151 | 73 | 288 | 0.0 | 0.0 | 0.00 | 0.00 | 0.00 | 54 | 1020.0 |
| 20260902091651 | 73 | 288 | 0.0 | 0.0 | 0.00 | 0.00 | 0.00 | 54 | 1020.1 |
| 20260902091148 | 73 | 288 | 0.0 | 0.0 | 0.00 | 0.00 | 0.00 | 54 | 1020.1 |
| 20260902090145 | 73 | 288 | 0.0 | 0.0 | 0.00 | 0.00 | 0.00 | 54 | 1020.0 |
| 20260902085643 | 73 | 288 | 0.0 | 0.0 | 0.00 | 0.00 | 0.00 | 54 | 1020.1 |
| 20260902084641 | 73 | 288 | 0.0 | 0.0 | 0.00 | 0.00 | 0.00 | 54 | 1020.0 |
| 20260902084141 | 73 | 288 | 0.0 | 0.0 | 0.00 | 0.00 | 0.00 | 54 | 1019.9 |
| 20260902083640 | 73 | 288 | 0.0 | 0.0 | 0.00 | 0.00 | 0.00 | 54 | 1019.9 |
| 20260902083140 | 73 | 288 | 0.0 | 0.0 | 0.00 | 0.00 | 0.00 | 54 | 1019.8 |
| 20260902082640 | 73 | 288 | 0.0 | 0.0 | 0.00 | 0.00 | 0.00 | 54 | 1020.0 |
| 20260902082141 | 73 | 288 | 0.0 | 0.0 | 0.00 | 0.00 | 0.00 | 54 | 1019.9 |
| 20260902081641 | 73 | 288 | 0.0 | 0.0 | 0.00 | 0.00 | 0.00 | 54 | 1019.8 |
| 20260902081136 | 73 | 288 | 0.0 | 0.0 | 0.00 | 0.00 | 0.00 | 54 | 1019.9 |
| 20260902080637 | 73 | 288 | 0.0 | 0.0 | 0.00 | 0.00 | 0.00 | 54 | 1019.8 |
| 20260902080144 | 74 | 288 | 0.0 | 0.0 | 0.00 | 0.00 | 0.00 | 54 | 1019.8 |
| 20260902075637 | 74 | 288 | 0.0 | 0.0 | 0.00 | 0.00 | 0.00 | 55 | 1019.8 |
| 20260902075137 | 74 | 288 | 0.0 | 0.0 | 0.00 | 0.00 | 0.00 | 55 | 1019.7 |
| 20260902074636 | 74 | 288 | 0.0 | 0.0 | 0.00 | 0.00 | 0.00 | 55 | 1019.7 |
| 20260902074136 | 74 | 288 | 0.0 | 0.0 | 0.00 | 0.00 | 0.00 | 55 | 1019.8 |
| 20260902073137 | 74 | 288 | 0.0 | 0.0 | 0.00 | 0.00 | 0.00 | 55 | 1019.8 |
| 20260902072633 | 74 | 288 | 0.0 | 0.0 | 0.00 | 0.00 | 0.00 | 55 | 1019.7 |
| 20260902072132 | 74 | 288 | 0.0 | 0.0 | 0.00 | 0.00 | 0.00 | 55 | 1019.7 |
| 20260902071633 | 74 | 288 | 0.0 | 0.0 | 0.00 | 0.00 | 0.00 | 55 | 1019.7 |
| 20260902071132 | 74 | 288 | 0.0 | 0.0 | 0.00 | 0.00 | 0.00 | 56 | 1019.7 |
| 20260902070633 | 74 | 288 | 0.0 | 0.0 | 0.00 | 0.00 | 0.00 | 56 | 1019.7 |
| 20260902070133 | 74 | 288 | 0.0 | 0.0 | 0.00 | 0.00 | 0.00 | 56 | 1019.8 |
| 20260902065633 | 74 | 288 | 0.0 | 0.0 | 0.00 | 0.00 | 0.00 | 56 | 1019.8 |
| 20260902065133 | 74 | 288 | 0.0 | 0.0 | 0.00 | 0.00 | 0.00 | 56 | 1019.8 |
| 20260902064128 | 74 | 288 | 0.0 | 0.0 | 0.00 | 0.00 | 0.00 | 57 | 1019.7 |
| 20260902063628 | 74 | 288 | 0.0 | 0.0 | 0.00 | 0.00 | 0.00 | 57 | 1019.8 |
| 20260902063128 | 74 | 288 | 0.0 | 0.0 | 0.00 | 0.00 | 0.00 | 57 | 1019.8 |
| 20260902062129 | 74 | 288 | 0.0 | 0.0 | 0.00 | 0.00 | 0.00 | 58 | 1019.9 |
| 20260902061628 | 74 | 288 | 0.0 | 0.0 | 0.00 | 0.00 | 0.00 | 58 | 1020.0 |
| 20260902060628 | 74 | 288 | 0.0 | 0.0 | 0.00 | 0.00 | 0.00 | 58 | 1019.9 |
| 20260902060129 | 74 | 288 | 0.0 | 0.0 | 0.00 | 0.00 | 0.00 | 58 | 1019.9 |
| 20260902055629 | 74 | 288 | 0.0 | 0.0 | 0.00 | 0.00 | 0.00 | 59 | 1019.9 |
| 20260902055129 | 75 | 288 | 0.0 | 0.0 | 0.00 | 0.00 | 0.00 | 59 | 1019.9 |
| 20260902054129 | 75 | 288 | 0.0 | 0.0 | 0.00 | 0.00 | 0.00 | 59 | 1019.9 |
| 20260902053628 | 75 | 288 | 0.0 | 0.0 | 0.00 | 0.00 | 0.00 | 60 | 1019.9 |
| 20260902053129 | 75 | 288 | 0.0 | 0.0 | 0.00 | 0.00 | 0.00 | 60 | 1019.9 |
| 20260902052629 | 75 | 288 | 0.0 | 0.0 | 0.00 | 0.00 | 0.00 | 60 | 1019.9 |
| 20260902052135 | 75 | 288 | 0.0 | 0.0 | 0.00 | 0.00 | 0.00 | 60 | 1020.0 |
| 20260902051629 | 75 | 288 | 0.0 | 0.0 | 0.00 | 0.00 | 0.00 | 60 | 1019.9 |
| 20260902051129 | 75 | 288 | 0.0 | 0.0 | 0.00 | 0.00 | 0.00 | 60 | 1019.9 |
| 20260902050629 | 75 | 288 | 0.0 | 0.0 | 0.00 | 0.00 | 0.00 | 60 | 1019.9 |
| 20260902050129 | 75 | 288 | 0.0 | 0.0 | 0.00 | 0.00 | 0.00 | 60 | 1019.9 |
| 20260902045626 | 75 | 288 | 0.0 | 0.0 | 0.00 | 0.00 | 0.00 | 60 | 1019.8 |
| 20260902045125 | 75 | 288 | 0.0 | 0.0 | 0.00 | 0.00 | 0.00 | 60 | 1019.7 |
| 20260902044623 | 76 | 288 | 0.0 | 0.0 | 0.00 | 0.00 | 0.00 | 60 | 1019.8 |
| 20260902044121 | 76 | 288 | 0.0 | 0.0 | 0.00 | 0.00 | 0.00 | 60 | 1019.8 |